User: anonymous   Login
Location: Unspecified
(0.0000°N, 0.0000°E)
Time: 20:32:27
(UTC+00:00)
Language:

NOSS 3-4 (C) - Orbit

View from above orbital plane
View from above orbital plane
View from above satellite
View from above satellite

Ground track
Ground track

The orbit data is extracted from the following two-line orbital elements,

1 31708U 07027C   20052.16208130 0.00000000  00000-0  00000-0 0    08
2 31708  63.3946 106.6375 0268632  20.1671 339.8329 13.40796037    01
Epoch (UTC): 21 February 2020 03:53:23
Eccentricity: 0.0268632
inclination: 63.3946°
perigee height: 905 km
apogee height: 1307 km
right ascension of ascending node: 106.6375°
argument of perigee: 20.1671°
revolutions per day: 13.40796037
mean anomaly at epoch: 339.8329°
orbit number at epoch: 0

The dashed part of the orbit path shows where the satellite is in the earth's shadow,  

DLR